CZ-6A DEB

Satellite information

Favourite Embed

Satellite Type and Status

DEBRISIN ORBIT

Key statistics

Satellite CZ-6A DEB at a glance.

Uptime

1128

Days in orbit

Revolutions

≈ 14.3

Per day

Orbit

SSO

Sun Synchronous Orbit

Inclination

98.7

Latest

Satellite identification and parameters

Extended collection of information and parameters for CZ-6A DEB.

Object identification

Identified? True

Debris? True

Object name: CZ-6A DEB

International designator: 2022-151JD

Object number (NORAD): 54501

Object ID (CCSDS): 54501

Country: PEOPLES REPUBLIC OF CHINA (PRC)

Current information (Y/N): Y

RCS size: SMALL

Orbital parameters

Period: 100.518 minutes

Inclination: 98.6591 deg

SMA: 7161.28 km

Apoapsis: 927.431 km

Periapsis: 638.859 km

RAAN: 348.8569 deg

Eccentricy: 0.0201481

Argument of periapsis: 316.4153 deg

Mean anomaly: 42.1262 deg

Mean motion: 14.32572985 rev/day

Mean motion (dot): 0.00011102 rev/day2

B* drag term: 0.0032763 1/REarth

Two-line elements (TLE)

Creation date: Dec. 12, 2025, 7:16 a.m.

Reference frame: TEME

Reference center: EARTH

Epoch: Dec. 12, 2025, 12:12 a.m. UTC

TLE line 0: 0 CZ-6A DEB

TLE line 1: 1 54501U 22151JD 25346.00840214 .00011102 00000-0 32763-2 0 9993

TLE line 2: 2 54501 98.6591 348.8569 0201481 316.4153 42.1262 14.32572985159959

Live tracking on map

Real-time ground track for satellite CZ-6A DEB.

In-orbit conjunctions

A list of the most updated potential collisions computed for object CZ-6A DEB.

Target Orbit TCA Probability of collision Miss distance Type
DELTA 1 DEB SSO 2024-11-14 10:46:37 0.0004138394 51.0 (m) DEBRIS
COSMOS 962 LEO 2024-06-29 23:52:13 0.0002163819 888.0 (m) PAYLOAD

Associated space launch

Chinese satellite reported for atmospheric/ocean/environmental/spatial parameter research purposes, details TBD.

CZ-6A DEB was lifted into orbit during the mission ‘Long March 6A | Yunhai 3’, on board a Long March 6A space rocket.

The launch took place on Nov. 11, 2022, 10:52 p.m. from Launch Complex 9A.

For more information about the launch, click the button.

Launch to space Long March 6A | Yunhai 3
Long March 6A | Yunhai 3

Agency: N/A

Status: Launch Successful

Launch date: Nov. 11, 2022, 10:52 p.m. UTC

Rocket: Long March 6A

Launch pad: Launch Complex 9A

Location: Taiyuan Satellite Launch Center, People's Republic of China

...

Latest news about this satellite

There are no fresh news available about this satellite. Check back as we update our databases every day.


Newsletter sign-up

Weekly statistics, charts and insights to help you stay on top of the space industry.